Flag for U.S.A. Weather past 2 weeks in Washington DC, District of Columbia, U.S.A.

Now
66 °F

Passing clouds.


Feels Like: 66 °F
Forecast: 62 / 85 °F
Wind: No wind

Location: Reagan National Airport

Current Time: Sep 21, 2014 at 4:18:13 AM

Latest Report: Sep 21, 2014 at 3:52 AM


Visibility: 10 mi

Pressure: 29.93 "Hg

Humidity: 84%

Dew point: 61 °F

Location of Washington DCLocation

Historic Weather in Washington DC — Graph

°F

Washington DC temperature yesterday

Maximum temperature yesterday: 83 °F (at 2:52 PM)
Minimum temperature yesterday: 65 °F (at 3:52 AM)
Average temperature yesterday: 72 °F

Past Weeks' High & Low Weather Summary

 TemperatureHumidityPressure
High94 °F (Sep 6, 3:52 PM)85% (Sep 20, 3:52 AM)30.33 "Hg (Sep 20, 3:52 AM)
Low56 °F (Sep 14, 5:52 AM)31% (Sep 7, 4:52 PM)29.86 "Hg (Sep 6, 4:52 PM)
Average73 °F61%30.10 "Hg
* Reported Sep 6 2:52 AM — Sep 21 2:52 AM, Washington DC, Weather by CustomWeather, © 2014

Note: Actual official high and low records may vary slightly from our data, if they occured in-between our weather recording intervals... More about our weather records

Advertising

Washington DC weather history for previous 24 hours

 ConditionsComfort  
Time TempWeatherWind HumidityBarometerVisibility
2:52 AM
Sep 21
68 °FPassing clouds.No wind78%29.96 "Hg10 mi
1:52 AM67 °FPassing clouds.5 mph79%30.00 "Hg10 mi
12:52 AM70 °FPassing clouds.No wind71%30.03 "Hg10 mi
11:52 PM
Sep 20
70 °FPassing clouds.3 mph71%30.06 "Hg10 mi
10:52 PM70 °FClear.6 mph73%30.06 "Hg10 mi
9:52 PM72 °FClear.9 mph68%30.05 "Hg10 mi
8:52 PM74 °FPassing clouds.9 mph62%30.07 "Hg10 mi
7:52 PM76 °FScattered clouds.10 mph52%30.06 "Hg10 mi
6:52 PM78 °FScattered clouds.6 mph45%30.07 "Hg10 mi
5:52 PM81 °FScattered clouds.8 mph42%30.08 "Hg10 mi
4:52 PM83 °FScattered clouds.6 mph40%30.09 "Hg10 mi
3:52 PM83 °FScattered clouds.7 mph40%30.11 "Hg10 mi
2:52 PM83 °FScattered clouds.9 mph41%30.14 "Hg10 mi
1:52 PM81 °FPassing clouds.9 mph45%30.17 "Hg10 mi
8:52 AM70 °FPassing clouds.No wind71%30.26 "Hg10 mi
7:52 AM66 °FPassing clouds.No wind81%30.26 "Hg8 mi
6:52 AM65 °FPassing clouds.No wind81%30.26 "Hg9 mi
5:52 AM65 °FPassing clouds.No wind81%30.26 "Hg10 mi
4:52 AM65 °FPassing clouds.No wind81%30.26 "Hg8 mi
Weather by CustomWeather, © 2014

See weather overviewHow to use our weather pages